Total_Precipitation_Accumulation
0.25 0.25 0.27 0.25 0.25 0.26 0.30 0.40 0.57 0.41 0.11 0.04 0.05 0.07 0.09 0.13 0.18 0.18 0.17 0.20 0.27 0.35 0.39 0.42 0.47 0.58 0.90 1.57 2.54 3.22 3.11 2.47 1.77 1.43 1.48 1.78 2.25 2.70
0.29 0.31 0.32 0.32 0.32 0.32 0.34 0.35 0.44 0.53 0.33 0.07 0.06 0.08 0.10 0.13 0.18 0.19 0.19 0.22 0.24 0.29 0.34 0.37 0.42 0.52 0.68 0.98 1.58 2.51 3.11 3.07 2.48 1.92 1.73 1.87 2.12 2.59
0.31 0.36 0.37 0.36 0.37 0.35 0.37 0.38 0.37 0.44 0.44 0.13 0.05 0.08 0.14 0.17 0.19 0.19 0.21 0.19 0.17 0.21 0.28 0.36 0.41 0.49 0.62 0.80 1.08 1.68 2.55 3.07 3.07 2.60 2.21 2.06 2.05 2.22
0.46 0.46 0.47 0.47 0.50 0.48 0.49 0.45 0.41 0.39 0.45 0.31 0.10 0.08 0.15 0.23 0.29 0.27 0.23 0.20 0.17 0.19 0.24 0.31 0.39 0.45 0.57 0.71 0.88 1.17 1.76 2.50 2.98 2.95 2.57 2.23 2.08 2.16
0.74 0.74 0.71 0.69 0.70 0.68 0.67 0.60 0.49 0.40 0.40 0.39 0.23 0.13 0.17 0.26 0.35 0.37 0.32 0.25 0.19 0.21 0.24 0.29 0.34 0.40 0.47 0.59 0.72 0.89 1.16 1.59 2.21 2.77 2.95 2.67 2.32 2.18
0.85 0.88 0.94 0.97 0.98 0.94 0.92 0.77 0.62 0.54 0.47 0.48 0.38 0.25 0.22 0.28 0.46 0.51 0.47 0.37 0.27 0.23 0.26 0.28 0.33 0.38 0.40 0.43 0.48 0.62 0.88 1.27 1.72 2.29 2.84 2.97 2.64 2.35
0.61 0.65 0.76 0.94 1.08 1.15 1.19 1.05 0.91 0.85 0.75 0.68 0.58 0.46 0.37 0.42 0.56 0.61 0.66 0.59 0.49 0.37 0.30 0.25 0.25 0.27 0.28 0.33 0.41 0.52 0.71 0.95 1.26 1.72 2.30 2.82 2.87 2.65
0.43 0.43 0.47 0.64 0.77 0.89 1.05 1.11 1.17 1.24 1.18 1.02 0.86 0.71 0.53 0.49 0.56 0.74 0.81 0.87 0.80 0.55 0.47 0.39 0.33 0.31 0.28 0.26 0.32 0.42 0.59 0.81 1.07 1.36 1.73 2.23 2.65 2.77
0.27 0.28 0.28 0.36 0.51 0.55 0.67 0.81 0.97 1.16 1.29 1.26 1.19 0.91 0.66 0.56 0.67 0.84 0.90 0.97 0.87 0.73 0.74 0.72 0.57 0.46 0.38 0.36 0.40 0.43 0.52 0.67 0.87 1.09 1.34 1.67 2.11 2.53
0.22 0.20 0.18 0.23 0.39 0.51 0.62 0.65 0.67 0.83 1.08 1.23 1.32 1.13 0.88 0.77 0.91 1.09 1.20 1.18 1.02 0.95 0.98 1.02 0.78 0.62 0.56 0.52 0.49 0.45 0.46 0.53 0.67 0.84 1.05 1.28 1.60 2.03
0.21 0.22 0.21 0.20 0.40 0.57 0.56 0.51 0.47 0.56 0.72 0.97 1.15 1.18 1.12 1.10 1.17 1.37 1.47 1.52 1.41 1.18 1.13 1.19 1.03 0.81 0.75 0.74 0.67 0.55 0.47 0.47 0.54 0.68 0.83 1.01 1.22 1.61
0.20 0.21 0.30 0.35 0.46 0.51 0.46 0.47 0.52 0.49 0.47 0.55 0.62 0.72 0.76 0.79 0.99 1.22 1.35 1.48 1.50 1.51 1.30 1.24 1.28 1.20 1.22 0.98 0.78 0.57 0.47 0.48 0.53 0.58 0.66 0.77 0.95 1.16
0.25 0.24 0.26 0.38 0.42 0.43 0.45 0.46 0.58 0.52 0.42 0.48 0.52 0.54 0.59 0.64 0.72 0.92 1.17 1.35 1.49 1.51 1.33 1.36 1.55 1.39 1.34 1.19 0.94 0.72 0.50 0.44 0.46 0.57 0.64 0.71 0.82 0.90
0.31 0.22 0.23 0.33 0.36 0.41 0.41 0.46 0.49 0.48 0.45 0.45 0.44 0.42 0.48 0.58 0.66 0.77 0.94 1.09 1.20 1.29 1.22 1.33 1.66 1.52 1.37 1.15 0.98 0.90 0.70 0.54 0.46 0.48 0.53 0.75 0.86 0.91
0.46 0.44 0.37 0.39 0.37 0.30 0.31 0.38 0.39 0.37 0.44 0.45 0.39 0.34 0.39 0.51 0.58 0.67 0.75 0.86 0.97 1.06 1.14 1.21 1.44 1.55 1.49 1.26 0.94 0.86 0.86 0.79 0.60 0.52 0.53 0.57 0.65 0.74
0.51 0.47 0.42 0.38 0.32 0.26 0.25 0.25 0.24 0.30 0.39 0.42 0.37 0.33 0.34 0.42 0.52 0.63 0.77 0.83 0.93 0.97 1.09 1.21 1.37 1.63 1.61 1.21 1.01 0.89 0.79 0.88 0.77 0.57 0.54 0.57 0.58 0.55
0.53 0.50 0.41 0.34 0.31 0.26 0.21 0.18 0.18 0.24 0.31 0.33 0.35 0.37 0.38 0.41 0.48 0.58 0.78 0.90 0.99 0.95 1.08 1.30 1.42 1.57 1.64 1.51 1.31 0.99 0.79 0.72 0.71 0.61 0.58 0.66 0.71 0.65
0.56 0.51 0.36 0.28 0.26 0.24 0.24 0.21 0.20 0.21 0.24 0.29 0.34 0.36 0.40 0.45 0.50 0.56 0.72 0.89 0.96 0.92 1.00 1.24 1.46 1.69 1.82 1.79 1.54 1.15 0.91 0.77 0.76 0.71 0.62 0.66 0.79 0.81
0.39 0.32 0.24 0.23 0.23 0.23 0.22 0.22 0.19 0.17 0.21 0.29 0.34 0.36 0.41 0.47 0.53 0.59 0.67 0.79 0.87 0.90 0.97 1.12 1.41 1.68 1.79 1.76 1.80 1.47 1.14 0.95 0.91 0.91 0.79 0.65 0.66 0.75
0.25 0.25 0.23 0.21 0.21 0.23 0.23 0.22 0.21 0.21 0.23 0.27 0.30 0.33 0.40 0.49 0.53 0.56 0.62 0.74 0.83 0.89 0.95 1.04 1.30 1.56 1.67 1.54 1.58 1.65 1.58 1.26 1.05 1.04 0.94 0.79 0.74 0.87
0.21 0.22 0.22 0.22 0.23 0.23 0.23 0.23 0.25 0.26 0.25 0.27 0.29 0.30 0.35 0.44 0.48 0.47 0.53 0.64 0.77 0.85 0.89 0.92 1.10 1.36 1.56 1.52 1.43 1.43 1.64 1.68 1.32 1.10 1.00 0.99 0.97 1.00
0.22 0.23 0.22 0.23 0.25 0.26 0.27 0.27 0.27 0.25 0.24 0.25 0.25 0.25 0.28 0.36 0.41 0.41 0.47 0.56 0.64 0.71 0.78 0.84 0.98 1.31 1.61 1.64 1.47 1.37 1.54 1.75 1.78 1.46 1.16 1.03 1.07 1.10
0.29 0.29 0.26 0.24 0.23 0.24 0.27 0.27 0.27 0.24 0.21 0.22 0.23 0.23 0.25 0.29 0.30 0.35 0.40 0.48 0.56 0.63 0.72 0.85 0.97 1.22 1.50 1.61 1.56 1.43 1.42 1.53 1.64 1.59 1.52 1.23 0.84 0.66